| time (UTC) | temp C | wind direction | speed KPH | gust KPH | rain 1hr cm | rain 24hr cm | rain mn cm | humidity % | barometer mb |
| 20260504225904 | 20 | 265 | 3.2 | 9.7 | 0.00 | 0.00 | 0.00 | 20 | 1002.1 |
| 20260504225405 | 19 | 152 | 3.2 | 9.7 | 0.00 | 0.00 | 0.00 | 19 | 1002.1 |
| 20260504224405 | 19 | 247 | 1.6 | 11.3 | 0.00 | 0.00 | 0.00 | 19 | 1002.4 |
| 20260504223405 | 20 | 189 | 6.4 | 12.9 | 0.00 | 0.00 | 0.00 | 19 | 1002.2 |
| 20260504222905 | 19 | 273 | 3.2 | 9.7 | 0.00 | 0.00 | 0.00 | 20 | 1002.3 |
| 20260504220405 | 20 | 238 | 6.4 | 19.3 | 0.00 | 0.00 | 0.00 | 17 | 1002.7 |
| 20260504211904 | 20 | 265 | 6.4 | 16.1 | 0.00 | 0.00 | 0.00 | 15 | 1003.1 |
| 20260504210405 | 20 | 100 | 3.2 | 24.1 | 0.00 | 0.00 | 0.00 | 17 | 1003.2 |
| 20260504205405 | 20 | 243 | 8.0 | 24.1 | 0.00 | 0.00 | 0.00 | 16 | 1003.5 |
| 20260504204904 | 20 | 198 | 8.0 | 19.3 | 0.00 | 0.00 | 0.00 | 16 | 1003.5 |
| 20260504203904 | 20 | 196 | 8.0 | 20.9 | 0.00 | 0.00 | 0.00 | 18 | 1003.7 |
| 20260504200904 | 20 | 257 | 3.2 | 19.3 | 0.00 | 0.00 | 0.00 | 21 | 1003.7 |
| 20260504194904 | 20 | 207 | 8.0 | 19.3 | 0.00 | 0.00 | 0.00 | 21 | 1003.8 |
| 20260504194404 | 20 | 192 | 9.7 | 16.1 | 0.00 | 0.00 | 0.00 | 21 | 1003.9 |
| 20260504193405 | 20 | 231 | 3.2 | 16.1 | 0.00 | 0.00 | 0.00 | 21 | 1004.0 |
| 20260504192904 | 20 | 243 | 4.8 | 16.1 | 0.00 | 0.00 | 0.00 | 22 | 1004.0 |
| 20260504192405 | 20 | 213 | 9.7 | 16.1 | 0.00 | 0.00 | 0.00 | 23 | 1003.9 |
| 20260504190904 | 19 | 184 | 8.0 | 19.3 | 0.00 | 0.00 | 0.00 | 24 | 1004.1 |
| 20260504190404 | 19 | 179 | 9.7 | 19.3 | 0.00 | 0.00 | 0.00 | 23 | 1004.2 |
| 20260504185904 | 19 | 195 | 4.8 | 20.9 | 0.00 | 0.00 | 0.00 | 23 | 1004.3 |
| 20260504185406 | 19 | 244 | 8.0 | 20.9 | 0.00 | 0.00 | 0.00 | 23 | 1004.3 |
| 20260504184905 | 19 | 216 | 8.0 | 19.3 | 0.00 | 0.00 | 0.00 | 24 | 1004.2 |
| 20260504184404 | 19 | 205 | 6.4 | 19.3 | 0.00 | 0.00 | 0.00 | 24 | 1004.4 |
| 20260504183904 | 19 | 218 | 4.8 | 12.9 | 0.00 | 0.00 | 0.00 | 25 | 1004.2 |
| 20260504183405 | 19 | 272 | 4.8 | 12.9 | 0.00 | 0.00 | 0.00 | 24 | 1004.4 |
| 20260504180905 | 18 | 176 | 6.4 | 19.3 | 0.00 | 0.00 | 0.00 | 27 | 1004.7 |
| 20260504175904 | 18 | 151 | 3.2 | 11.3 | 0.00 | 0.00 | 0.00 | 28 | 1004.9 |
| 20260504173904 | 18 | 234 | 4.8 | 12.9 | 0.00 | 0.00 | 0.00 | 30 | 1005.1 |
| 20260504172905 | 18 | 194 | 4.8 | 14.5 | 0.00 | 0.00 | 0.00 | 31 | 1005.1 |
| 20260504172405 | 18 | 218 | 3.2 | 14.5 | 0.00 | 0.00 | 0.00 | 32 | 1005.2 |
| 20260504171904 | 18 | 225 | 3.2 | 8.0 | 0.00 | 0.00 | 0.00 | 30 | 1005.2 |
| 20260504171405 | 18 | 326 | 3.2 | 12.9 | 0.00 | 0.00 | 0.00 | 32 | 1005.1 |
| 20260504150905 | 13 | 154 | 4.8 | 8.0 | 0.00 | 0.00 | 0.00 | 59 | 1006.7 |
| 20260504150404 | 13 | 0 | 3.2 | 9.7 | 0.00 | 0.00 | 0.00 | 59 | 1006.7 |
| 20260504130404 | 10 | 153 | 0.0 | 4.8 | 0.00 | 0.00 | 0.00 | 69 | 1006.9 |
| 20260504110405 | 9 | 150 | 1.6 | 4.8 | 0.00 | 0.00 | 0.00 | 70 | 1006.2 |
| 20260504100404 | 10 | 83 | 1.6 | 4.8 | 0.00 | 0.00 | 0.00 | 73 | 1006.2 |
| 20260504081905 | 10 | 192 | 0.0 | 0.0 | 0.00 | 0.00 | 0.00 | 67 | 1007.5 |
| 20260504081404 | 10 | 192 | 0.0 | 0.0 | 0.00 | 0.00 | 0.00 | 66 | 1007.6 |
| 20260504070404 | 10 | 149 | 3.2 | 4.8 | 0.00 | 0.00 | 0.00 | 60 | 1008.4 |
| 20260504045404 | 11 | 150 | 1.6 | 4.8 | 0.00 | 0.00 | 0.00 | 54 | 1008.8 |
| 20260504044404 | 11 | 11 | 1.6 | 4.8 | 0.00 | 0.00 | 0.00 | 50 | 1008.8 |
| 20260504043405 | 11 | 145 | 0.0 | 4.8 | 0.00 | 0.00 | 0.00 | 49 | 1008.8 |
| 20260504042404 | 12 | 131 | 1.6 | 8.0 | 0.00 | 0.00 | 0.00 | 48 | 1008.6 |
| 20260504041404 | 12 | 84 | 0.0 | 3.2 | 0.00 | 0.00 | 0.00 | 45 | 1008.7 |
| 20260504035904 | 12 | 42 | 1.6 | 4.8 | 0.00 | 0.00 | 0.00 | 40 | 1008.4 |
| 20260504034904 | 13 | 138 | 0.0 | 1.6 | 0.00 | 0.00 | 0.00 | 37 | 1008.5 |
| 20260504032904 | 14 | 135 | 1.6 | 3.2 | 0.00 | 0.00 | 0.00 | 34 | 1008.5 |
| 20260504031904 | 14 | 135 | 1.6 | 4.8 | 0.00 | 0.00 | 0.00 | 33 | 1008.5 |
| 20260504030405 | 15 | 150 | 4.8 | 8.0 | 0.00 | 0.00 | 0.00 | 32 | 1008.4 |
| 20260504024904 | 15 | 144 | 3.2 | 12.9 | 0.00 | 0.00 | 0.00 | 30 | 1008.1 |
| 20260504023404 | 15 | 139 | 3.2 | 12.9 | 0.00 | 0.00 | 0.00 | 30 | 1007.9 |
| 20260504022904 | 15 | 159 | 3.2 | 12.9 | 0.00 | 0.00 | 0.00 | 30 | 1007.8 |
| 20260504021904 | 16 | 155 | 3.2 | 8.0 | 0.00 | 0.00 | 0.00 | 29 | 1007.7 |
| 20260504021404 | 16 | 148 | 3.2 | 8.0 | 0.00 | 0.00 | 0.00 | 29 | 1007.6 |
| 20260504020403 | 16 | 169 | 3.2 | 8.0 | 0.00 | 0.00 | 0.00 | 29 | 1007.6 |
| 20260504015404 | 16 | 171 | 1.6 | 12.9 | 0.00 | 0.00 | 0.00 | 29 | 1007.4 |
| 20260504014405 | 17 | 0 | 4.8 | 12.9 | 0.00 | 0.00 | 0.00 | 27 | 1007.3 |
| 20260504013404 | 17 | 0 | 3.2 | 16.1 | 0.00 | 0.00 | 0.00 | 27 | 1007.4 |
| 20260504012904 | 17 | 0 | 4.8 | 16.1 | 0.00 | 0.00 | 0.00 | 27 | 1007.4 |
| 20260504011904 | 17 | 0 | 8.0 | 12.9 | 0.00 | 0.00 | 0.00 | 26 | 1007.5 |
| 20260504011406 | 17 | 0 | 4.8 | 12.9 | 0.00 | 0.00 | 0.00 | 26 | 1007.5 |
| 20260504005404 | 18 | 198 | 3.2 | 12.9 | 0.00 | 0.00 | 0.00 | 25 | 1007.6 |
| 20260504002904 | 18 | 197 | 4.8 | 16.1 | 0.00 | 0.00 | 0.00 | 25 | 1007.7 |
| 20260504002404 | 18 | 183 | 8.0 | 16.1 | 0.00 | 0.00 | 0.00 | 25 | 1007.8 |
| 20260504001904 | 19 | 164 | 8.0 | 16.1 | 0.00 | 0.00 | 0.00 | 24 | 1007.7 |
| 20260504001404 | 19 | 157 | 8.0 | 16.1 | 0.00 | 0.00 | 0.00 | 25 | 1007.8 |
| 20260504000403 | 19 | 204 | 3.2 | 14.5 | 0.00 | 0.00 | 0.00 | 24 | 1007.9 |
| 20260503235905 | 19 | 155 | 4.8 | 19.3 | 0.00 | 0.00 | 0.00 | 24 | 1007.9 |
| 20260503235404 | 19 | 184 | 8.0 | 19.3 | 0.00 | 0.00 | 0.00 | 24 | 1008.0 |
| 20260503234904 | 19 | 148 | 9.7 | 19.3 | 0.00 | 0.00 | 0.00 | 24 | 1007.9 |
| 20260503234404 | 19 | 202 | 3.2 | 14.5 | 0.00 | 0.00 | 0.00 | 24 | 1007.9 |
| 20260503232904 | 20 | 199 | 6.4 | 19.3 | 0.00 | 0.00 | 0.00 | 24 | 1008.1 |
| 20260503230904 | 20 | 216 | 6.4 | 16.1 | 0.00 | 0.00 | 0.00 | 26 | 1008.3 |
| 20260503230404 | 20 | 148 | 3.2 | 16.1 | 0.00 | 0.00 | 0.00 | 25 | 1008.3 |